Regional Weather Roundup
Issued by NWS Albany, NY

Home | Current Version | Previous Version | Text Only | Print | Product List | Glossary On
Versions: 1 2 3 4 5 6 7 8 9 10 11 12 13 14 15 16 17 18 19 20 21 22 23 24 25 26 27 28 29 30 31 32 33 34 35 36 37 38 39 40 41 42 43 44 45 46 47 48 49 50
000
ASUS41 KALY 201210
RWRALY

NEW YORK STATE HOURLY WEATHER ROUNDUP
NATIONAL WEATHER SERVICE ALBANY NY
800 AM EDT THU JUL 20 2017

NOTE: "FAIR" INDICATES FEW OR NO CLOUDS BELOW 12,000 FEET WITH NO
SIGNIFICANT WEATHER AND/OR NO OBSTRUCTIONS TO VISIBILITY.

NYZ032-033-038>043-046>054-057>066-NYZ062>081-082-084-201300-
EAST


CITY           SKY/WX    TMP DP  RH WIND       PRES   REMARKS
ALBANY         PTSUNNY   73  65  75 S7        29.97F
GLENS FALLS    SUNNY     72  67  84 S3        29.96F
POUGHKEEPSIE   MOSUNNY   73  65  75 CALM      29.99S
NEWBURGH       MOSUNNY   73  70  88 CALM      30.02R
MONTGOMERY     MOSUNNY   73  68  84 CALM      30.00S
WHITE PLAINS   SUNNY     79  64  61 W3        29.99S
ISLIP          PTSUNNY   82  70  66 CALM      29.98R
NEW YORK CITY  PTSUNNY   81  73  76 E5        29.97R
CENTRAL PARK   MOSUNNY   81  70  69 CALM      30.01R
$$

NYZ005>009-017-018-044>046-055-056-201300-
CENTRAL


CITY           SKY/WX    TMP DP  RH WIND       PRES   REMARKS
FULTON         MOSUNNY   71  68  90 SW5       30.00R
SYRACUSE       PTSUNNY   73  67  81 W6        29.98S
ROME           CLOUDY    71  69  93 CALM      29.99S
ELMIRA         PTSUNNY   68  67  96 S3        30.03R
BINGHAMTON     CLOUDY    69  65  86 W7        30.05S
$$

NYZ026>034-041>043-087-201300-
NORTH


CITY           SKY/WX    TMP DP  RH WIND       PRES   REMARKS
WATERTOWN      PTSUNNY   72  69  90 SW9       29.97R
FORT DRUM      NOT AVBL
OGDENSBURG     PTSUNNY   69  68  96 SW5       29.95R
MASSENA        PTSUNNY   69  67  93 SW5       29.95R
SARANAC LAKE   SUNNY     66  66 100 SW6       29.99S
PLATTSBURGH    SUNNY     73  65  75 CALM      29.93S
$$

NYZ001>004-010>016-019>021-085-201300-
WEST


CITY           SKY/WX    TMP DP  RH WIND       PRES   REMARKS
NIAGARA FALLS  CLOUDY    71  64  78 CALM      30.00S
BUFFALO        CLOUDY    71  66  84 SW5       30.01R
DUNKIRK        MOSUNNY   71  66  84 S7        30.02R
JAMESTOWN      MOSUNNY   66  61  82 S3        30.08R
WELLSVILLE     MOSUNNY   70  62  76 W6        30.10R
ROCHESTER      PTSUNNY   69  66  90 SW6       30.01R
PENN YAN       PTSUNNY   72  63  73 SW8       30.03R
$$

             KEY
       WCI = WIND CHILL INDEX
       VSB = VISIBILITY
       HX  = HEAT INDEX
$$



USA.gov is the U.S. government's official web portal to all federal, state and local government web resources and services.